When you browse on this site, cookies collect data to enhance your experience and personalize the content and advertising you see.
Visit our Privacy Policy to learn more. By continuing to use the site, you agree to this use of cookies and data.
  • In Hungary
  • List of Countries
  • For 7 days
  • Water Temperature
  • Weather Map
  • News
  • Weather Widgets
  • user-avatar
    Login

    Hourly Weather Boda

    Today, 20 November, Wednesday

    Time Temperature Precipitation Wind Pressure Humidity
    00:00 +24°C° 0 mm 0 mps 712 mmHg 75%
    01:00 +23°C° 0 mm 0 mps 712 mmHg 78%
    02:00 +23°C° 0 mm 0 mps 711 mmHg 79%
    03:00 +23°C° 0 mm 0 mps 711 mmHg 80%
    04:00 +22°C° 0 mm 0 mps 711 mmHg 82%
    05:00 +23°C° 0 mm 0 mps 712 mmHg 80%
    06:00 +24°C° 0 mm 0 mps 712 mmHg 79%
    07:00 +24°C° 0 mm 0 mps 713 mmHg 78%
    08:00 +27°C° 0 mm 0 mps 713 mmHg 67%
    09:00 +32°C° 0 mm 1 mps 713 mmHg 57%
    10:00 +34°C° 0 mm 1 mps 713 mmHg 46%
    11:00 +36°C° 0 mm 2 mps 712 mmHg 42%
    12:00 +36°C° 0 mm 2 mps 711 mmHg 38%
    13:00 +37°C° 0 mm 3 mps 711 mmHg 34%
    14:00 +36°C° 0 mm 3 mps 710 mmHg 38%
    15:00 +35°C° 0 mm 2 mps 710 mmHg 41%
    16:00 +35°C° 0 mm 2 mps 709 mmHg 44%
    17:00 +32°C° 0 mm 1 mps 710 mmHg 48%
    18:00 +30°C° 0 mm 1 mps 710 mmHg 51%
    19:00 +28°C° 0 mm 1 mps 710 mmHg 55%
    20:00 +28°C° 0 mm 1 mps 711 mmHg 58%
    21:00 +25°C° 0 mm 0 mps 711 mmHg 60%
    22:00 +24°C° 0 mm 0 mps 711 mmHg 63%
    23:00 +24°C° 0 mm 0 mps 711 mmHg 64%

    Tomorrow, 21 November, Thursday

    Time Temperature Precipitation Wind Pressure Humidity
    00:00 +23°C° 0 mm 0 mps 711 mmHg 66%
    01:00 +23°C° 0 mm 0 mps 711 mmHg 67%
    02:00 +23°C° 0 mm 0 mps 711 mmHg 68%
    03:00 +22°C° 0 mm 0 mps 710 mmHg 69%
    04:00 +22°C° 0 mm 0 mps 710 mmHg 70%
    05:00 +23°C° 0 mm 0 mps 711 mmHg 69%
    06:00 +24°C° 0 mm 0 mps 712 mmHg 68%
    07:00 +24°C° 0 mm 0 mps 712 mmHg 67%
    08:00 +27°C° 0 mm 0 mps 712 mmHg 58%
    09:00 +32°C° 0 mm 1 mps 712 mmHg 48%
    10:00 +36°C° 0 mm 1 mps 713 mmHg 39%
    11:00 +36°C° 0 mm 1 mps 712 mmHg 34%
    12:00 +37°C° 0 mm 2 mps 711 mmHg 30%
    13:00 +38°C° 0 mm 2 mps 710 mmHg 26%
    14:00 +37°C° 0 mm 2 mps 710 mmHg 28%
    15:00 +37°C° 0 mm 2 mps 710 mmHg 31%
    16:00 +35°C° 0 mm 1 mps 709 mmHg 34%
    17:00 +33°C° 0 mm 1 mps 709 mmHg 37%
    18:00 +30°C° 0 mm 1 mps 710 mmHg 41%
    19:00 +26°C° 0 mm 0 mps 710 mmHg 45%
    20:00 +25°C° 0 mm 0 mps 710 mmHg 46%
    21:00 +25°C° 0 mm 0 mps 711 mmHg 48%
    22:00 +24°C° 0 mm 0 mps 711 mmHg 50%
    23:00 +25°C° 0 mm 1 mps 711 mmHg 54%

    Day after tomorrow, 22 November, Friday

    Time Temperature Precipitation Wind Pressure Humidity
    00:00 +25°C° 0 mm 1 mps 711 mmHg 57%
    01:00 +24°C° 0 mm 1 mps 711 mmHg 60%
    02:00 +23°C° 0 mm 1 mps 711 mmHg 67%
    03:00 +23°C° 0 mm 1 mps 711 mmHg 73%
    04:00 +23°C° 0 mm 1 mps 711 mmHg 80%
    05:00 +23°C° 0 mm 1 mps 712 mmHg 80%
    06:00 +24°C° 0 mm 2 mps 713 mmHg 81%
    07:00 +25°C° 0 mm 2 mps 713 mmHg 81%
    08:00 +27°C° 0 mm 2 mps 713 mmHg 73%
    09:00 +29°C° 0 mm 2 mps 713 mmHg 65%
    10:00 +31°C° 0 mm 3 mps 714 mmHg 56%
    11:00 +34°C° 0 mm 2 mps 713 mmHg 49%
    12:00 +35°C° 0 mm 2 mps 712 mmHg 41%
    13:00 +36°C° 0 mm 2 mps 712 mmHg 34%
    14:00 +35°C° 0 mm 1 mps 711 mmHg 36%
    15:00 +34°C° 0 mm 1 mps 711 mmHg 39%
    16:00 +33°C° 0 mm 1 mps 710 mmHg 41%
    17:00 +31°C° 0 mm 1 mps 711 mmHg 45%
    18:00 +30°C° 0 mm 1 mps 711 mmHg 50%
    19:00 +28°C° 0 mm 1 mps 711 mmHg 54%
    20:00 +27°C° 0 mm 1 mps 712 mmHg 63%
    21:00 +26°C° 0 mm 1 mps 712 mmHg 71%
    22:00 +25°C° 0 mm 1 mps 712 mmHg 80%
    23:00 +24°C° 0 mm 1 mps 712 mmHg 82%

    23 November, Saturday

    Time Temperature Precipitation Wind Pressure Humidity
    00:00 +24°C° 0 mm 1 mps 712 mmHg 85%
    01:00 +24°C° 0 mm 1 mps 712 mmHg 87%
    02:00 +23°C° 0 mm 1 mps 712 mmHg 89%
    03:00 +23°C° 0 mm 1 mps 712 mmHg 92%
    04:00 +22°C° 0 mm 1 mps 712 mmHg 94%
    05:00 +23°C° 0 mm 1 mps 712 mmHg 91%
    06:00 +24°C° 0 mm 2 mps 713 mmHg 88%
    07:00 +24°C° 0 mm 2 mps 713 mmHg 86%
    08:00 +26°C° 0 mm 2 mps 714 mmHg 77%
    09:00 +28°C° 0 mm 2 mps 714 mmHg 68%
    10:00 +30°C° 0 mm 3 mps 714 mmHg 60%
    11:00 +32°C° 0 mm 2 mps 713 mmHg 54%
    12:00 +34°C° 0 mm 2 mps 713 mmHg 47%
    13:00 +35°C° 0 mm 1 mps 712 mmHg 41%
    14:00 +34°C° 0 mm 1 mps 712 mmHg 43%
    15:00 +33°C° 0 mm 1 mps 711 mmHg 44%
    16:00 +30°C° 0 mm 0 mps 711 mmHg 46%
    17:00 +30°C° 0 mm 1 mps 711 mmHg 52%
    18:00 +29°C° 0 mm 1 mps 711 mmHg 57%
    19:00 +27°C° 0 mm 2 mps 712 mmHg 62%
    20:00 +26°C° 0 mm 1 mps 712 mmHg 67%
    21:00 +26°C° 0 mm 1 mps 713 mmHg 71%
    22:00 +25°C° 0 mm 1 mps 713 mmHg 75%
    23:00 +25°C° 0 mm 1 mps 713 mmHg 76%

    24 November, Sunday

    Time Temperature Precipitation Wind Pressure Humidity
    00:00 +25°C° 0 mm 1 mps 713 mmHg 78%
    01:00 +22°C° 0 mm 0 mps 713 mmHg 79%
    02:00 +22°C° 0 mm 0 mps 712 mmHg 81%
    03:00 +22°C° 0 mm 0 mps 712 mmHg 83%
    04:00 +21°C° 0 mm 0 mps 712 mmHg 86%
    05:00 +22°C° 0 mm 0 mps 713 mmHg 84%
    06:00 +22°C° 0 mm 0 mps 713 mmHg 83%
    07:00 +25°C° 0 mm 1 mps 713 mmHg 82%
    08:00 +27°C° 0 mm 1 mps 714 mmHg 71%
    09:00 +30°C° 0 mm 1 mps 714 mmHg 61%
    10:00 +33°C° 0 mm 1 mps 714 mmHg 51%
    11:00 +34°C° 0 mm 1 mps 714 mmHg 47%
    12:00 +35°C° 0 mm 1 mps 713 mmHg 42%
    13:00 +35°C° 0 mm 0 mps 712 mmHg 38%
    14:00 +33°C° 0 mm 0 mps 712 mmHg 41%
    15:00 +32°C° 0 mm 0 mps 711 mmHg 44%
    16:00 +31°C° 0 mm 0 mps 711 mmHg 47%
    17:00 +29°C° 0.1 mm 0 mps 711 mmHg 51%
    18:00 +30°C° 0.1 mm 1 mps 711 mmHg 56%
    19:00 +29°C° 0.1 mm 1 mps 711 mmHg 60%
    20:00 +28°C° 0.2 mm 1 mps 712 mmHg 66%
    21:00 +27°C° 0.2 mm 1 mps 712 mmHg 72%
    22:00 +26°C° 0.2 mm 1 mps 712 mmHg 77%
    23:00 +25°C° 0 mm 1 mps 712 mmHg 80%

    25 November, Monday

    Time Temperature Precipitation Wind Pressure Humidity
    00:00 +25°C° 0 mm 1 mps 712 mmHg 82%
    01:00 +22°C° 0 mm 0 mps 712 mmHg 85%
    02:00 +22°C° 0 mm 0 mps 712 mmHg 86%
    03:00 +22°C° 0 mm 0 mps 711 mmHg 87%
    04:00 +21°C° 0 mm 0 mps 711 mmHg 88%
    05:00 +22°C° 0 mm 0 mps 712 mmHg 85%
    06:00 +23°C° 0 mm 0 mps 712 mmHg 82%
    07:00 +24°C° 0 mm 0 mps 713 mmHg 79%
    08:00 +28°C° 0 mm 1 mps 713 mmHg 69%
    09:00 +31°C° 0 mm 1 mps 713 mmHg 58%
    10:00 +33°C° 0 mm 1 mps 714 mmHg 48%
    11:00 +34°C° 0 mm 1 mps 713 mmHg 45%
    12:00 +34°C° 0 mm 1 mps 712 mmHg 43%
    13:00 +35°C° 0 mm 1 mps 711 mmHg 40%
    14:00 +33°C° 0 mm 1 mps 711 mmHg 44%
    15:00 +32°C° 0 mm 1 mps 711 mmHg 48%
    16:00 +31°C° 0 mm 1 mps 710 mmHg 52%
    17:00 +29°C° 0.3 mm 1 mps 710 mmHg 59%
    18:00 +28°C° 0.3 mm 1 mps 711 mmHg 65%
    19:00 +24°C° 0.3 mm 0 mps 711 mmHg 72%
    20:00 +24°C° 0.1 mm 0 mps 711 mmHg 74%
    21:00 +23°C° 0.1 mm 0 mps 712 mmHg 77%
    22:00 +23°C° 0.1 mm 0 mps 712 mmHg 79%
    23:00 +23°C° 0.3 mm 0 mps 712 mmHg 81%
    Show more